Home   Weather   Klaksvík   Past weeks

Flag for Faroe Islands Past Weather in Klaksvík, Faroe Islands, Faroe Islands — Yesterday and Last 2 Weeks

Now
41 °F

Passing clouds.


Feels Like: 33 °F
Forecast: 40 / 45 °F
Wind: 15 mph from North

Location: Thorshavn

Current Time: Jan 23, 2017 at 4:46:45 am

Latest Report: Jan 23, 2017 at 3:00 am


Visibility: 31 mi

Pressure: 30.06 "Hg

Humidity: 85%

Dew Point: 37 °F

Location of KlaksvíkLocation

Past Weather in Klaksvík — Graph

°F

Klaksvík Temperature Yesterday

Maximum temperature yesterday: 44 °F (at 3:00 am)
Minimum temperature yesterday: 40 °F (at 11:00 pm)
Average temperature yesterday: 42 °F

High & Low Weather Summary for the Past Weeks

 TemperatureHumidityPressure
High50 °F (Jan 17, 6:00 pm)100% (Jan 8, 9:00 pm)30.28 "Hg (Jan 8, 9:00 pm)
Low27 °F (Jan 14, 10:00 am)50% (Jan 13, 11:00 pm)28.79 "Hg (Jan 11, 1:00 am)
Average41 °F83%29.78 "Hg
* Reported Jan 8 3:00 am — Jan 23 3:00 am, Klaksvík, Weather by CustomWeather, © 2017

Note: Actual official high and low records may vary slightly from our data, if they occured in-between our weather recording intervals... More about our weather records

Advertising

Klaksvík Weather History for the Previous 24 Hours

Scroll right to see more
 ConditionsComfort  
Time TempWeatherWind HumidityBarometerVisibility
3:00 am
Mon, Jan 23
41 °FPassing clouds.15 mph85%30.06 "Hg31 mi
2:00 am41 °FFog.14 mph87%30.07 "Hg8 mi
1:00 am41 °FFog.12 mph89%30.08 "Hg7 mi
12:00 am41 °FPassing clouds.12 mph84%30.08 "Hg16 mi
11:00 pm
Sun, Jan 22
40 °FPassing clouds.8 mph87%30.07 "Hg25 mi
10:00 pm41 °FPassing clouds.10 mph87%30.08 "Hg19 mi
9:00 pm40 °FPassing clouds.10 mph88%30.07 "Hg7 mi
8:00 pm41 °FPassing clouds.10 mph80%30.07 "Hg31 mi
7:00 pm41 °FPassing clouds.15 mph84%30.07 "Hg22 mi
6:00 pm42 °FPassing clouds.17 mph84%30.06 "Hg19 mi
5:00 pm42 °FPassing clouds.18 mph82%30.05 "Hg28 mi
4:00 pm42 °FPassing clouds.16 mph80%30.05 "Hg22 mi
3:00 pm42 °FPartly sunny.15 mph80%30.04 "Hg6 mi
2:00 pm43 °FPartly sunny.16 mph78%30.05 "Hg22 mi
1:00 pm42 °FPartly sunny.15 mph82%30.05 "Hg28 mi
12:00 pm43 °FSunny.17 mph80%30.06 "Hg28 mi
11:00 am42 °FPartly sunny.14 mph82%30.06 "Hg19 mi
10:00 am42 °FPartly sunny.13 mph81%30.06 "Hg15 mi
9:00 am42 °FPassing clouds.15 mph78%30.06 "Hg25 mi
8:00 am42 °FPassing clouds.14 mph79%30.05 "Hg19 mi
7:00 am42 °FPassing clouds.12 mph81%30.05 "Hg17 mi
6:00 am42 °FPassing clouds.10 mph80%30.05 "Hg19 mi
5:00 am42 °FPassing clouds.7 mph81%30.05 "Hg14 mi
Weather by CustomWeather, © 2017

See weather overviewHow to use our weather pages